Change the Weather History Date:

Thursday, December 5, 2013

  Actual Average Record
Temperature  
Mean Temperature -15 °F -  
Max Temperature -7 °F 0 °F 30 °F (1998)
Min Temperature -23 °F -12 °F -25 °F (2011)
Degree Days  
Heating Degree Days 80    
Moisture  
Dew Point -21 °F    
Average Humidity 78    
Maximum Humidity 84    
Minimum Humidity 69    
Precipitation  
Precipitation 0.00 in - - ()
Sea Level Pressure  
Sea Level Pressure 30.44 in    
Wind  
Wind Speed 12 mph ()    
Max Wind Speed 18 mph    
Max Gust Speed -    
Visibility 5.6 miles    
Events Fog , Snow    
Averages and records for this station are not official NWS values.
T = Trace of Precipitation, MM = Missing Value Source: Averaged Metar Reports

Daily Weather History Graph

Daily Weather History Graph

Search for Another Location

Airport or City:

Trip Planner

Search our weather history database for the weather conditions in past years. The results will help you decide how hot, cold, wet, or windy it might be!

Date:

Astronomy

Dec. 05, 2013 Rise Set
Actual Time 11:43 AM EST 12:48 PM EST
Civil Twilight 9:30 AM EST 3:00 PM EST
Nautical Twilight 8:00 AM EST 4:30 PM EST
Astronomical Twilight 6:47 AM EST 5:43 PM EST
Moon 12:23 PM EST (12/5) 5:52 PM EST (12/5)
Length of Visible Light 5h 30m
Length of Day
1h 04m
Waxing Crescent, 10% of the Moon is Illuminated
Dec 5
Waxing Crescent
Dec 9
First Quarter
Dec 17
Full
Dec 25
Last Quarter
Jan 1
New

Hourly Weather History & Observations

Time (EST) Temp. Windchill Dew Point Humidity Pressure Visibility Wind Dir Wind Speed Gust Speed Precip Events Conditions
12:00 AM -20.2 °F -41.3 °F -25.6 °F 76% 30.48 in 9.0 mi NW 10.4 mph - N/A   Clear
1:00 AM -22.0 °F -45.7 °F -29.2 °F 69% 30.49 in 9.0 mi NW 12.7 mph - N/A   Clear
2:00 AM -22.0 °F -46.6 °F -27.4 °F 76% 30.50 in 9.0 mi NW 13.8 mph - N/A   Clear
3:00 AM -22.0 °F -44.7 °F -29.2 °F 69% 30.51 in 9.0 mi WNW 11.5 mph - N/A   Clear
4:00 AM -22.0 °F -45.7 °F -27.4 °F 76% 30.51 in 9.0 mi NW 12.7 mph - N/A   Clear
5:00 AM -22.0 °F -46.6 °F -27.4 °F 76% 30.52 in 9.0 mi NW 13.8 mph - N/A   Clear
6:00 AM -23.8 °F -49.8 °F -29.2 °F 76% 30.52 in 9.0 mi NW 15.0 mph - N/A   Clear
7:00 AM -23.8 °F -48.9 °F -31.0 °F 69% 30.52 in 15.0 mi NW 13.8 mph - N/A   Clear
8:00 AM -23.8 °F -48.0 °F -31.0 °F 69% 30.52 in 15.0 mi NW 12.7 mph - N/A   Clear
8:29 AM -23.8 °F -48.0 °F -31.0 °F 69% 30.52 in 12.0 mi WNW 12.7 mph - N/A   Ice Crystals
9:00 AM -23.8 °F -49.8 °F -31.0 °F 69% 30.52 in 12.0 mi NW 15.0 mph - N/A   Ice Crystals
10:00 AM -23.8 °F -48.9 °F -31.0 °F 69% 30.52 in 8.0 mi NW 13.8 mph - N/A   Ice Crystals
11:00 AM -23.8 °F -49.8 °F -29.2 °F 76% 30.51 in 12.0 mi NW 15.0 mph - N/A Snow Ice Crystals
12:00 PM -23.8 °F -49.8 °F -29.2 °F 76% 30.49 in 12.0 mi NW 15.0 mph - N/A Snow Ice Crystals
1:00 PM -23.8 °F -49.8 °F -31.0 °F 69% 30.48 in 9.0 mi NW 15.0 mph - N/A Snow Ice Crystals
1:29 PM -23.8 °F -48.9 °F -29.2 °F 76% 30.48 in 6.0 mi NW 13.8 mph - N/A Snow Ice Crystals
1:52 PM -20.2 °F -45.2 °F -25.6 °F 76% 30.48 in 3.0 mi NW 15.0 mph - N/A Snow Ice Crystals
2:00 PM -18.4 °F -42.9 °F -23.8 °F 76% 30.48 in 3.0 mi NW 15.0 mph - N/A Snow Ice Crystals
3:00 PM -16.6 °F -39.8 °F -22.0 °F 76% 30.47 in 3.0 mi NW 13.8 mph - N/A Snow Ice Crystals
3:23 PM -14.8 °F -36.6 °F -20.2 °F 77% 30.47 in 2.0 mi NW 12.7 mph - N/A Snow Ice Crystals
3:38 PM -14.8 °F -36.6 °F -18.4 °F 84% 30.47 in 8.0 mi NW 12.7 mph - N/A Fog , Snow Ice Crystals
4:00 PM -13.0 °F -33.4 °F -18.4 °F 77% 30.46 in 10.0 mi WNW 11.5 mph - N/A Snow Light Snow
4:46 PM -11.2 °F -32.9 °F -14.8 °F 84% 30.45 in 5.0 mi NW 13.8 mph - N/A Snow Light Snow
5:00 PM -9.4 °F -30.6 °F -14.8 °F 77% 30.44 in 4.0 mi NW 13.8 mph - N/A Snow Light Snow
5:30 PM -7.6 °F -28.3 °F -13.0 °F 77% 30.44 in 3.0 mi NNW 13.8 mph - N/A Snow Light Snow
6:00 PM -7.6 °F -29.8 °F -13.0 °F 77% 30.43 in 1.5 mi NNW 16.1 mph - N/A Snow Light Snow
6:17 PM -9.4 °F -32.1 °F -13.0 °F 84% 30.43 in 1.0 mi NNW 16.1 mph - N/A Snow Light Snow
6:35 PM -9.4 °F -32.1 °F -13.0 °F 84% 30.43 in 1.5 mi NNW 16.1 mph - N/A Snow Light Snow
7:00 PM -9.4 °F -32.1 °F -13.0 °F 84% 30.42 in 1.0 mi NNW 16.1 mph - N/A Snow Light Snow
8:00 PM -9.4 °F -33.5 °F -14.8 °F 77% 30.40 in 1.2 mi NNW 18.4 mph - N/A Snow Light Snow
9:00 PM -11.2 °F -35.2 °F -14.8 °F 84% 30.39 in 1.5 mi NNW 17.3 mph - N/A Snow Light Snow
9:39 PM -11.2 °F -35.2 °F -14.8 °F 84% 30.38 in 1.2 mi NNW 17.3 mph - N/A Snow Light Snow
10:00 PM -11.2 °F -34.4 °F -16.6 °F 77% 30.38 in 1.2 mi NNW 16.1 mph - N/A Snow Light Snow
10:26 PM -11.2 °F -35.2 °F -14.8 °F 84% 30.37 in 1.0 mi NNW 17.3 mph - N/A Snow Light Snow
10:52 PM -11.2 °F -32.9 °F -16.6 °F 77% 30.36 in 1.0 mi NNW 13.8 mph - N/A Snow Light Snow
11:00 PM -11.2 °F -34.4 °F -16.6 °F 77% 30.36 in 1.0 mi NNW 16.1 mph - N/A Snow Light Snow
11:32 PM -11.2 °F -33.7 °F -16.6 °F 77% 30.35 in 1.0 mi NNW 15.0 mph - N/A Snow Light Snow
11:35 PM -13.0 °F -35.2 °F -16.6 °F 84% 30.35 in 1.2 mi NW 13.8 mph - N/A Snow Light Snow
11:42 PM -13.0 °F -32.4 °F -16.6 °F 84% 30.35 in 2.2 mi NW 10.4 mph - N/A Snow Light Snow
11:45 PM -13.0 °F -34.3 °F -16.6 °F 84% 30.34 in 3.0 mi NW 12.7 mph - N/A Snow Light Snow
11:53 PM -13.0 °F -32.4 °F -16.6 °F 84% 30.35 in 5.0 mi NW 10.4 mph - N/A   Overcast
11:55 PM -13.0 °F -33.4 °F -16.6 °F 84% 30.35 in 6.0 mi NW 11.5 mph - N/A   Overcast
11:57 PM -13.0 °F -32.4 °F -16.6 °F 84% 30.35 in 6.0 mi NW 10.4 mph - N/A   Overcast
11:58 PM -13.0 °F -32.4 °F -16.6 °F 84% 30.35 in 6.0 mi NW 10.4 mph - N/A   Overcast
11:59 PM -13.0 °F -32.4 °F -16.6 °F 84% 30.35 in 5.0 mi NW 10.4 mph - N/A   Overcast